Location: *
(34.8620°S, 39.3380°E)
Time: 08:39:24
(UTC+00:00)

SL-24 DEB - Pass Details

Date: 27 July 2021
Orbit: 666 x 698 km, 92.0° (Epoch: 22 September)

Event Time Altitude Azimuth Distance (km) Brightness Sun altitude
Rises 03:36:35 0° 6° (N) 3,010 7.9 -9.4°
Reaches altitude 10° 03:38:48 10° 6° (N) 2,108 7.1 -8.9°
Maximum altitude 03:43:28 90° 133° (SE) 692 4.3 -8.0°
Drops below altitude 10° 03:48:14 10° 185° (S) 2,158 6.6 -7.1°
Sets 03:50:31 0° 184° (S) 3,087 7.4 -6.6°
